Weather History for Jefferson, NC

Change the Weather History Date:

Sunday, November 6, 2011

  Actual Average Record
Temperature  
Mean Temperature 42 °F -  
Max Temperature 53 °F 55 °F 73 °F (2005)
Min Temperature 32 °F 31 °F 11 °F (1991)
Degree Days  
Heating Degree Days 22    
Moisture  
Dew Point 30 °F    
Average Humidity 70    
Maximum Humidity 93    
Minimum Humidity 50    
Precipitation  
Precipitation 0.00 in - - ()
Sea Level Pressure  
Sea Level Pressure 30.39 in    
Wind  
Wind Speed 1 mph (SSE)    
Max Wind Speed 9 mph    
Max Gust Speed -    
Visibility 10 miles    
Events      
Averages and records for this station are not official NWS values.
T = Trace of Precipitation, MM = Missing Value Source: NWS Daily Summary

Daily Weather History Graph

Daily Weather History Graph

Search for Another Location

Airport:

Trip Planner

Search our weather history database for the weather conditions in past years. The results will help you decide how hot, cold, wet, or windy it might be!

Date:

Astronomy

Nov. 06, 2011 Rise Set
Actual Time 6:53 AM EST 5:24 PM EST
Civil Twilight 6:26 AM EST 5:51 PM EST
Nautical Twilight 5:55 AM EST 6:22 PM EST
Astronomical Twilight 5:25 AM EST 6:52 PM EST
Moon 3:03 PM EST (11/6) 3:04 AM EST (11/6)
Length of Visible Light 11h 24m
Length of Day
10h 30m
Waxing Gibbous, 85% of the Moon is Illuminated
Nov 6
Waxing Gibbous
Nov 10
Full
Nov 18
Last Quarter
Nov 25
New
Dec 2
First Quarter

Hourly Weather History & Observations

Time (EST) Temp. Windchill Dew Point Humidity Pressure Visibility Wind Dir Wind Speed Gust Speed Precip Events Conditions
12:15 AM 32.0 °F - 21.2 °F 64% 30.38 in 10.0 mi Calm Calm - N/A   Clear
12:35 AM 32.0 °F - 23.0 °F 69% 30.38 in 10.0 mi Calm Calm - N/A   Clear
12:55 AM 32.0 °F - 23.0 °F 69% 30.37 in 10.0 mi Calm Calm - N/A   Clear
1:15 AM 32.0 °F - 23.0 °F 69% 30.38 in 10.0 mi Calm Calm - N/A   Clear
1:35 AM 32.0 °F - 23.0 °F 69% 30.38 in 10.0 mi Calm Calm - N/A   Clear
1:55 AM 32.0 °F - 23.0 °F 69% 30.38 in 10.0 mi Calm Calm - N/A   Clear
1:15 AM 32.0 °F - 23.0 °F 69% 30.38 in 10.0 mi Calm Calm - N/A   Clear
1:35 AM 32.0 °F - 23.0 °F 69% 30.37 in 10.0 mi Calm Calm - N/A   Clear
1:55 AM 32.0 °F - 23.0 °F 69% 30.37 in 10.0 mi Calm Calm - N/A   Clear
2:15 AM 32.0 °F - 24.8 °F 75% 30.37 in 10.0 mi Calm Calm - N/A   Clear
2:35 AM 32.0 °F - 24.8 °F 75% 30.37 in 10.0 mi Calm Calm - N/A   Clear
2:55 AM 32.0 °F - 24.8 °F 75% 30.37 in 10.0 mi Calm Calm - N/A   Clear
3:15 AM 32.0 °F - 24.8 °F 75% 30.37 in 10.0 mi Calm Calm - N/A   Clear
3:35 AM 32.0 °F - 24.8 °F 75% 30.37 in 10.0 mi Calm Calm - N/A   Mostly Cloudy
3:55 AM 32.0 °F - 26.6 °F 80% 30.37 in 10.0 mi Calm Calm - N/A   Overcast
4:15 AM 32.0 °F - 26.6 °F 80% 30.37 in 10.0 mi Calm Calm - N/A   Overcast
4:35 AM 32.0 °F - 26.6 °F 80% 30.38 in 10.0 mi Calm Calm - N/A   Overcast
5:15 AM 32.0 °F - 28.4 °F 87% 30.38 in 10.0 mi Calm Calm - N/A   Overcast
5:35 AM 32.0 °F - 28.4 °F 87% 30.39 in 10.0 mi Calm Calm - N/A   Overcast
5:55 AM 32.0 °F - 28.4 °F 87% 30.39 in 10.0 mi Calm Calm - N/A   Overcast
6:15 AM 32.0 °F - 28.4 °F 87% 30.40 in 10.0 mi Calm Calm - N/A   Overcast
6:35 AM 32.0 °F - 28.4 °F 87% 30.40 in 10.0 mi Calm Calm - N/A   Overcast
6:55 AM 32.0 °F - 30.2 °F 93% 30.41 in 10.0 mi Calm Calm - N/A   Overcast
7:15 AM 32.0 °F - 30.2 °F 93% 30.42 in 10.0 mi Calm Calm - N/A   Overcast
7:35 AM 33.8 °F - 30.2 °F 87% 30.42 in 10.0 mi Calm Calm - N/A   Overcast
7:55 AM 33.8 °F - 30.2 °F 87% 30.43 in 10.0 mi Calm Calm - N/A   Overcast
8:15 AM 33.8 °F - 32.0 °F 93% 30.44 in 10.0 mi Calm Calm - N/A   Overcast
8:35 AM 35.6 °F - 32.0 °F 87% 30.44 in 10.0 mi Calm Calm - N/A   Overcast
8:55 AM 37.4 °F 34.9 °F 32.0 °F 81% 30.44 in 10.0 mi South 3.5 mph - N/A   Overcast
9:15 AM 39.2 °F 37.0 °F 32.0 °F 75% 30.45 in 10.0 mi South 3.5 mph - N/A   Overcast
9:35 AM 41.0 °F 38.0 °F 32.0 °F 70% 30.44 in 10.0 mi South 4.6 mph - N/A   Overcast
9:55 AM 44.6 °F 42.2 °F 33.8 °F 66% 30.44 in 10.0 mi SSE 4.6 mph - N/A   Overcast
10:15 AM 46.4 °F 42.4 °F 35.6 °F 66% 30.44 in 10.0 mi South 8.1 mph - N/A   Scattered Clouds
10:35 AM 46.4 °F 43.5 °F 35.6 °F 66% 30.43 in 10.0 mi SSE 5.8 mph - N/A   Clear
10:55 AM 48.2 °F - 35.6 °F 62% 30.43 in 10.0 mi South 5.8 mph - N/A   Clear
11:15 AM 48.2 °F - 35.6 °F 62% 30.43 in 10.0 mi SSE 6.9 mph - N/A   Clear
11:35 AM 50.0 °F - 35.6 °F 58% 30.42 in 10.0 mi South 5.8 mph - N/A   Clear
11:55 AM 50.0 °F - 35.6 °F 58% 30.41 in 10.0 mi South 9.2 mph - N/A   Clear
12:15 PM 51.8 °F - 35.6 °F 54% 30.40 in 10.0 mi SSE 3.5 mph - N/A   Clear
12:35 PM 51.8 °F - 33.8 °F 50% 30.39 in 10.0 mi SSE 4.6 mph - N/A   Clear
12:55 PM 51.8 °F - 35.6 °F 54% 30.38 in 10.0 mi SSE 6.9 mph - N/A   Clear
1:15 PM 53.6 °F - 35.6 °F 51% 30.38 in 10.0 mi SE 6.9 mph - N/A   Clear
1:35 PM 51.8 °F - 35.6 °F 54% 30.37 in 10.0 mi SSE 4.6 mph - N/A   Clear
1:55 PM 53.6 °F - 35.6 °F 51% 30.37 in 10.0 mi SE 8.1 mph - N/A   Clear
2:15 PM 53.6 °F - 35.6 °F 51% 30.36 in 10.0 mi SSE 5.8 mph - N/A   Clear
2:35 PM 53.6 °F - 35.6 °F 51% 30.36 in 10.0 mi SSE 4.6 mph - N/A   Clear
2:55 PM 53.6 °F - 35.6 °F 51% 30.36 in 10.0 mi SE 6.9 mph - N/A   Clear
3:15 PM 53.6 °F - 35.6 °F 51% 30.36 in 10.0 mi South 4.6 mph - N/A   Clear
3:35 PM 51.8 °F - 35.6 °F 54% 30.36 in 10.0 mi SE 4.6 mph - N/A   Clear
3:55 PM 51.8 °F - 35.6 °F 54% 30.37 in 10.0 mi SSE 4.6 mph - N/A   Clear
4:15 PM 51.8 °F - 35.6 °F 54% 30.37 in 10.0 mi SSE 4.6 mph - N/A   Clear
4:35 PM 50.0 °F - 35.6 °F 58% 30.37 in 10.0 mi SSE 5.8 mph - N/A   Clear
4:55 PM 50.0 °F - 35.6 °F 58% 30.37 in 10.0 mi SE 4.6 mph - N/A   Clear
5:15 PM 48.2 °F - 35.6 °F 62% 30.37 in 10.0 mi SSE 5.8 mph - N/A   Clear
5:35 PM 46.4 °F 45.2 °F 35.6 °F 66% 30.37 in 10.0 mi SSE 3.5 mph - N/A   Clear
5:55 PM 46.4 °F 44.3 °F 35.6 °F 66% 30.37 in 10.0 mi SSE 4.6 mph - N/A   Clear
6:15 PM 44.6 °F 42.2 °F 35.6 °F 71% 30.37 in 10.0 mi SSE 4.6 mph - N/A   Clear
6:35 PM 44.6 °F - 35.6 °F 71% 30.38 in 10.0 mi Calm Calm - N/A   Clear
6:55 PM 44.6 °F - 35.6 °F 71% 30.39 in 10.0 mi Calm Calm - N/A   Clear
7:15 PM 44.6 °F - 35.6 °F 71% 30.39 in 10.0 mi Calm Calm - N/A   Clear
7:35 PM 44.6 °F - 35.6 °F 71% 30.39 in 10.0 mi Calm Calm - N/A   Clear
8:15 PM 42.8 °F - 35.6 °F 76% 30.40 in 10.0 mi Calm Calm - N/A   Clear
8:35 PM 42.8 °F - 35.6 °F 76% 30.40 in 10.0 mi Calm Calm - N/A   Clear
8:55 PM 42.8 °F - 35.6 °F 76% 30.40 in 10.0 mi Calm Calm - N/A   Clear
9:15 PM 41.0 °F - 35.6 °F 81% 30.40 in 10.0 mi Calm Calm - N/A   Clear
9:35 PM 41.0 °F 39.0 °F 35.6 °F 81% 30.40 in 10.0 mi South 3.5 mph - N/A   Clear
9:55 PM 41.0 °F - 35.6 °F 81% 30.40 in 10.0 mi Calm Calm - N/A   Clear
10:15 PM 39.2 °F - 35.6 °F 87% 30.40 in 10.0 mi Calm Calm - N/A   Clear
10:35 PM 41.0 °F - 37.4 °F 87% 30.40 in 10.0 mi Calm Calm - N/A   Clear